sat.trackr.live / text

‹ back to catalog

STARLINK-37151

NORAD 68290 · 2026-055AE

PAYLOAD ACTIVE UNKNOWN

§ Identity

Operator
Country
US
Launch date
2026-03-19
Launch site
AFETR
Launch vehicle
Mass (kg)
RCS (m²)

Purposes: comms

External: N2YO · Heavens-Above · Gunter

§ Orbital elements

Epoch: 2026-05-25T04:00:03.998880Z

Period
93.79 min
Inclination
53.1597°
Eccentricity
0.0000816
Mean motion
15.35405842 rev/d
Perigee alt
459.2 km
Apogee alt
460.3 km
Semi-major
6,837.9 km
B*
-4.7054e-4
RAAN
323.0907°
Arg perigee
81.0574°
Mean anomaly
266.0920°
Rev number
585

§ Raw data

STARLINK-371511 68290U 26055AE  26145.16671295 -.00016760  00000+0 -47054-3 0  99922 68290  53.1597 323.0907 0000816  81.0574 266.0920 15.35405842  5851

JSON: /api/v1/satellites/68290 · /tle

For live sub-satellite position, see the globe view (requires WebGL).

§ Visibility from observer

Set your observer location to see the next 7 days of passes ≥ 10°. The values pass through the URL so the page stays shareable.

No JS? Fill the form by hand. The geolocation button needs JavaScript.